Location: Baumgartsau
(48.4586°N, 14.0864°E)
Time: 07:44:55
(UTC+00:00)

Cosmos 1140 Rocket - Pass Details

Date: 09 April 2020
Orbit: 745 x 767 km, 74.1° (Epoch: 02 June)

Event Time Altitude Azimuth Distance (km) Brightness Sun altitude
Rises 18:24:10 0° 180° (S) 3,201 6.5 -6.8°
Reaches altitude 10° 18:26:37 10° 173° (S) 2,277 5.7 -7.2°
Maximum altitude 18:31:27 42° 104° (ESE) 1,074 3.8 -7.9°
Drops below altitude 10° 18:36:17 10° 35° (NE) 2,280 5.8 -8.7°
Sets 18:38:44 0° 29° (NNE) 3,206 6.7 -9.1°
